Location: McCall
(45.0000°N, 116.0000°W)
Time: 15:19:03
(UTC-06:00)

Saudisat 1A - Visible Passes

Search period start: 01 April 2015 00:00
Search period end: 11 April 2015 00:00
Orbit: 584 x 616 km, 64.6° (Epoch: 31 March)

Date Brightness Start Highest point End Pass type
(mag) Time Alt. Az. Time Alt. Az. Time Alt. Az.
01 Apr 8.4 21:14:57 10° NNW 21:19:20 51° NE 21:22:17 19° ESE visible
01 Apr 10.0 22:55:09 10° WNW 22:58:35 21° WSW 22:59:03 21° WSW visible
02 Apr 8.0 21:26:06 10° NW 21:30:36 87° NE 21:33:43 20° SE visible
02 Apr 10.7 23:07:53 10° W 23:09:32 12° WSW 23:10:29 11° WSW visible
03 Apr 8.7 21:37:23 10° NW 21:41:46 53° WSW 21:45:15 15° SSE visible
04 Apr 9.7 21:48:55 10° NW 21:52:50 30° WSW 21:56:42 10° S visible
05 Apr 10.6 22:00:52 10° WNW 22:03:50 17° WSW 22:06:38 10° SSW visible
07 Apr 9.3 20:42:46 10° NW 20:47:02 42° WSW 20:51:14 10° S visible
08 Apr 10.3 20:54:23 10° WNW 20:58:02 24° WSW 21:01:36 10° SSW visible
09 Apr 10.9 21:06:40 10° W 21:08:59 14° WSW 21:11:06 10° SW visible
